User: anonymous   Login
Location: Unspecified
(52.4292°N, 19.3359°E)
Time: 20:14:42
(UTC+02:00)
Language:

Vanguard 2 Rocket - Orbit

View from above orbital plane
View from above orbital plane
View from above satellite
View from above satellite

Ground track
Ground track

The orbit data is extracted from the following two-line orbital elements,

1 00012U 59001B   24166.69990313  .00002356  00000-0  13845-2 0  9996
2 00012  32.9021 283.4381 1654121 190.9589 165.0188 11.46507494447142
Epoch (UTC): 14 June 2024 16:47:51
Eccentricity: 0.1654121
inclination: 32.9021°
perigee height: 555 km
apogee height: 3304 km
right ascension of ascending node: 283.4381°
argument of perigee: 190.9589°
revolutions per day: 11.46507494
mean anomaly at epoch: 165.0188°
orbit number at epoch: 44714

The dashed part of the orbit path shows where the satellite is in the earth's shadow,  

DLR